WZZ411 LRTM-LHBP

Flight info

Callsign WZZ411
Flight time 0h 46m
Altitude 36000
Route DOKUD DCT ELROM DCT ADUKU DCT KEZAL
Aircraft A321/M-SDE1E2E3FGIJ1J4RWXY/LB1

Departure

Time 2026-04-20 16:47
Airport Târgu Mureş Transilvania International Airport (LRTM)

Arrival

Time 2026-04-20 17:33
Airport Budapest Liszt Ferenc International Airport (LHBP)
Time Latitude Longitude Altitude Speed Heading
2026-04-20 16:13 46.46787 24.42230 990 ft 0 kts
2026-04-20 16:44 46.46800 24.42233 958 ft 6 kts 13°
2026-04-20 16:45 46.46847 24.42272 963 ft 7 kts
2026-04-20 16:45 46.46889 24.42259 960 ft 5 kts 343°
2026-04-20 16:45 46.46919 24.42247 960 ft 4 kts 344°
2026-04-20 16:45 46.46946 24.42247 961 ft 4 kts 11°
2026-04-20 16:46 46.46967 24.42269 962 ft 4 kts 47°
2026-04-20 16:46 46.46990 24.42346 962 ft 11 kts 82°
2026-04-20 16:46 46.46988 24.42453 964 ft 9 kts 65°
2026-04-20 16:46 46.47004 24.42450 959 ft 3 kts 281°
2026-04-20 16:47 46.46956 24.42171 960 ft 67 kts 254°
2026-04-20 16:47 46.46761 24.41176 957 ft 135 kts 254°
2026-04-20 16:47 46.46472 24.39636 1229 ft 167 kts 255°
2026-04-20 16:47 46.46174 24.38011 2075 ft 165 kts 254°
2026-04-20 16:48 46.45851 24.36365 2682 ft 176 kts 256°
2026-04-20 16:48 46.45494 24.34557 2891 ft 197 kts 256°
2026-04-20 16:48 46.45094 24.32532 3039 ft 221 kts 256°
2026-04-20 16:48 46.44648 24.30263 3292 ft 246 kts 256°
2026-04-20 16:49 46.44175 24.27865 3980 ft 252 kts 256°
2026-04-20 16:49 46.43717 24.25416 4897 ft 251 kts 262°
2026-04-20 16:49 46.43762 24.22902 5678 ft 252 kts 286°
2026-04-20 16:49 46.44351 24.20497 6472 ft 254 kts 291°
2026-04-20 16:50 46.44984 24.18076 7238 ft 258 kts 291°
2026-04-20 16:50 46.45627 24.15621 8000 ft 262 kts 291°
2026-04-20 16:50 46.46279 24.13126 8755 ft 267 kts 291°
2026-04-20 16:50 46.46935 24.10614 9502 ft 271 kts 291°
2026-04-20 16:51 46.47609 24.08028 10172 ft 277 kts 290°
2026-04-20 16:51 46.48289 24.05406 10936 ft 277 kts 290°
2026-04-20 16:51 46.48967 24.02787 11743 ft 277 kts 290°
2026-04-20 16:51 46.49643 24.00172 12560 ft 277 kts 290°
2026-04-20 16:52 46.50319 23.97549 13336 ft 278 kts 289°
2026-04-20 16:52 46.50998 23.94909 14062 ft 280 kts 289°
2026-04-20 16:52 46.51673 23.92287 14729 ft 282 kts 290°
2026-04-20 16:52 46.52364 23.89607 15394 ft 284 kts 290°
2026-04-20 16:53 46.53058 23.86907 16048 ft 286 kts 290°
2026-04-20 16:53 46.53760 23.84176 16702 ft 289 kts 290°
2026-04-20 16:53 46.54467 23.81429 17338 ft 291 kts 290°
2026-04-20 16:53 46.55181 23.78659 17974 ft 294 kts 290°
2026-04-20 16:54 46.55889 23.75900 18540 ft 297 kts 290°
2026-04-20 16:54 46.56612 23.73079 19096 ft 299 kts 289°
2026-04-20 16:54 46.57339 23.70235 19653 ft 301 kts 289°
2026-04-20 16:54 46.58067 23.67375 20201 ft 303 kts 289°
2026-04-20 16:55 46.58804 23.64489 20776 ft 304 kts 289°
2026-04-20 16:55 46.59543 23.61592 21344 ft 306 kts 289°
2026-04-20 16:55 46.60277 23.58718 21887 ft 307 kts 289°
2026-04-20 16:55 46.61023 23.55786 22444 ft 309 kts 289°
2026-04-20 16:56 46.61772 23.52829 22996 ft 311 kts 288°
2026-04-20 16:56 46.62520 23.49855 23526 ft 313 kts 288°
2026-04-20 16:56 46.63266 23.46894 23975 ft 315 kts 288°
2026-04-20 16:56 46.64023 23.43888 24427 ft 317 kts 288°
2026-04-20 16:57 46.64789 23.40855 24873 ft 320 kts 288°
2026-04-20 16:57 46.65559 23.37808 25305 ft 321 kts 288°
2026-04-20 16:57 46.66332 23.34739 25736 ft 324 kts 288°
2026-04-20 16:57 46.67109 23.31652 26165 ft 326 kts 289°
2026-04-20 16:58 46.67888 23.28545 26645 ft 327 kts 288°
2026-04-20 16:58 46.68671 23.25418 27109 ft 328 kts 289°
2026-04-20 16:58 46.69456 23.22285 27536 ft 331 kts 288°
2026-04-20 16:58 46.70248 23.19114 27969 ft 333 kts 289°
2026-04-20 16:59 46.71042 23.15939 28401 ft 335 kts 288°
2026-04-20 16:59 46.71840 23.12737 28818 ft 337 kts 288°
2026-04-20 16:59 46.72633 23.09545 29232 ft 339 kts 288°
2026-04-20 16:59 46.73441 23.06295 29640 ft 341 kts 288°
2026-04-20 17:00 46.74858 22.99663 30347 ft 345 kts 284°
2026-04-20 17:00 46.75471 22.96265 30624 ft 348 kts 284°
2026-04-20 17:00 46.76088 22.92847 30979 ft 348 kts 284°
2026-04-20 17:01 46.76702 22.89442 31397 ft 347 kts 284°
2026-04-20 17:01 46.77314 22.86034 31746 ft 347 kts 284°
2026-04-20 17:01 46.77927 22.82614 32046 ft 348 kts 284°
2026-04-20 17:01 46.78533 22.79232 32338 ft 349 kts 284°
2026-04-20 17:02 46.79149 22.75788 32646 ft 350 kts 284°
2026-04-20 17:02 46.79764 22.72343 32952 ft 351 kts 284°
2026-04-20 17:02 46.80381 22.68885 33236 ft 352 kts 284°
2026-04-20 17:02 46.80996 22.65424 33534 ft 353 kts 284°
2026-04-20 17:03 46.81610 22.61954 33810 ft 354 kts 284°
2026-04-20 17:03 46.82224 22.58471 34033 ft 355 kts 284°
2026-04-20 17:03 46.82843 22.54976 34289 ft 355 kts 284°
2026-04-20 17:03 46.83461 22.51498 34541 ft 354 kts 284°
2026-04-20 17:04 46.84078 22.48019 34775 ft 353 kts 284°
2026-04-20 17:04 46.84684 22.44582 34948 ft 354 kts 284°
2026-04-20 17:04 46.85298 22.41079 35101 ft 356 kts 284°
2026-04-20 17:04 46.85913 22.37555 35253 ft 358 kts 284°
2026-04-20 17:05 46.86531 22.34016 35402 ft 360 kts 284°
2026-04-20 17:05 46.87153 22.30456 35551 ft 362 kts 284°
2026-04-20 17:05 46.87776 22.26877 35694 ft 363 kts 284°
2026-04-20 17:05 46.88393 22.23336 35848 ft 364 kts 284°
2026-04-20 17:06 46.89020 22.19724 35911 ft 366 kts 284°
2026-04-20 17:06 46.90270 22.12493 35916 ft 365 kts 284°
2026-04-20 17:07 46.91501 22.05323 35915 ft 364 kts 284°
2026-04-20 17:07 46.92710 21.98130 35916 ft 363 kts 283°
2026-04-20 17:08 46.93583 21.92035 35925 ft 372 kts 281°
2026-04-20 17:08 46.94084 21.88250 35711 ft 384 kts 281°
2026-04-20 17:08 46.94592 21.84365 35277 ft 397 kts 281°
2026-04-20 17:08 46.95117 21.80366 34828 ft 402 kts 282°
2026-04-20 17:09 46.95649 21.76366 34420 ft 399 kts 282°
2026-04-20 17:09 46.96184 21.72382 34003 ft 396 kts 282°
2026-04-20 17:09 46.96718 21.68440 33522 ft 392 kts 282°
2026-04-20 17:09 46.97245 21.64574 33033 ft 388 kts 282°
2026-04-20 17:10 46.97770 21.60712 32502 ft 385 kts 282°
2026-04-20 17:10 46.98288 21.56865 31976 ft 382 kts 282°
2026-04-20 17:10 46.98800 21.53058 31463 ft 379 kts 282°
2026-04-20 17:10 46.99309 21.49283 30956 ft 375 kts 282°
2026-04-20 17:11 46.99843 21.45596 30379 ft 373 kts 283°
2026-04-20 17:11 47.00418 21.41922 29390 ft 368 kts 283°
2026-04-20 17:11 47.01013 21.38291 28413 ft 361 kts 283°
2026-04-20 17:11 47.01602 21.34737 27406 ft 360 kts 283°
2026-04-20 17:12 47.02183 21.31214 26660 ft 352 kts 283°
2026-04-20 17:12 47.02744 21.27769 26004 ft 348 kts 282°
2026-04-20 17:12 47.03299 21.24315 25327 ft 346 kts 282°
2026-04-20 17:12 47.03840 21.20913 25029 ft 338 kts 282°
2026-04-20 17:13 47.04370 21.17571 24692 ft 332 kts 282°
2026-04-20 17:13 47.04881 21.14327 24350 ft 328 kts 282°
2026-04-20 17:13 47.05388 21.11088 24001 ft 324 kts 282°
2026-04-20 17:13 47.05891 21.07879 23640 ft 320 kts 282°
2026-04-20 17:14 47.06386 21.04722 23253 ft 316 kts 282°
2026-04-20 17:14 47.06875 21.01609 22893 ft 310 kts 282°
2026-04-20 17:14 47.07354 20.98556 22544 ft 304 kts 282°
2026-04-20 17:14 47.07821 20.95563 22195 ft 298 kts 282°
2026-04-20 17:15 47.08282 20.92612 21855 ft 293 kts 282°
2026-04-20 17:15 47.08733 20.89717 21512 ft 288 kts 282°
2026-04-20 17:15 47.09167 20.86921 21224 ft 282 kts 282°
2026-04-20 17:15 47.09598 20.84138 20883 ft 278 kts 282°
2026-04-20 17:16 47.10026 20.81374 20551 ft 277 kts 282°
2026-04-20 17:16 47.10449 20.78618 20216 ft 276 kts 282°
2026-04-20 17:16 47.10870 20.75865 19891 ft 276 kts 282°
2026-04-20 17:16 47.11292 20.73112 19560 ft 275 kts 282°
2026-04-20 17:17 47.11713 20.70373 19233 ft 274 kts 282°
2026-04-20 17:17 47.12127 20.67679 18910 ft 273 kts 282°
2026-04-20 17:17 47.12544 20.64953 18581 ft 273 kts 282°
2026-04-20 17:17 47.12962 20.62227 18252 ft 272 kts 283°
2026-04-20 17:18 47.13377 20.59516 17890 ft 272 kts 283°
2026-04-20 17:18 47.13787 20.56808 17555 ft 271 kts 283°
2026-04-20 17:18 47.14196 20.54106 17228 ft 271 kts 283°
2026-04-20 17:18 47.14606 20.51405 16900 ft 270 kts 283°
2026-04-20 17:19 47.15015 20.48705 16570 ft 270 kts 283°
2026-04-20 17:19 47.15417 20.46050 16241 ft 270 kts 283°
2026-04-20 17:19 47.15825 20.43357 15920 ft 270 kts 283°
2026-04-20 17:19 47.16231 20.40669 15591 ft 269 kts 283°
2026-04-20 17:20 47.16636 20.37984 15268 ft 268 kts 283°
2026-04-20 17:20 47.17040 20.35307 14935 ft 268 kts 283°
2026-04-20 17:20 47.17441 20.32627 14612 ft 268 kts 283°
2026-04-20 17:20 47.17842 20.29944 14282 ft 268 kts 283°
2026-04-20 17:21 47.18238 20.27301 13961 ft 268 kts 283°
2026-04-20 17:21 47.18638 20.24624 13616 ft 267 kts 283°
2026-04-20 17:21 47.19039 20.21942 13276 ft 267 kts 283°
2026-04-20 17:21 47.19436 20.19278 12943 ft 266 kts 283°
2026-04-20 17:22 47.19827 20.16655 12626 ft 265 kts 283°
2026-04-20 17:22 47.20221 20.14012 12303 ft 264 kts 283°
2026-04-20 17:22 47.20611 20.11377 11981 ft 263 kts 283°
2026-04-20 17:22 47.20997 20.08755 11662 ft 261 kts 283°
2026-04-20 17:23 47.21382 20.06138 11345 ft 260 kts 284°
2026-04-20 17:23 47.21762 20.03535 11030 ft 259 kts 283°
2026-04-20 17:23 47.22139 20.00948 10710 ft 258 kts 284°
2026-04-20 17:23 47.22512 19.98397 10400 ft 257 kts 284°
2026-04-20 17:24 47.22890 19.95824 10113 ft 255 kts 284°
2026-04-20 17:24 47.23270 19.93237 10048 ft 263 kts 284°
2026-04-20 17:24 47.23657 19.90590 9882 ft 265 kts 284°
2026-04-20 17:24 47.24050 19.87898 9384 ft 268 kts 284°
2026-04-20 17:25 47.24438 19.85228 9013 ft 265 kts 284°
2026-04-20 17:25 47.24819 19.82609 8596 ft 265 kts 284°
2026-04-20 17:25 47.25205 19.79957 8232 ft 263 kts 284°
2026-04-20 17:25 47.25587 19.77327 7888 ft 260 kts 284°
2026-04-20 17:26 47.25965 19.74728 7490 ft 258 kts 284°
2026-04-20 17:26 47.26336 19.72159 6751 ft 256 kts 284°
2026-04-20 17:26 47.26706 19.69589 5952 ft 257 kts 284°
2026-04-20 17:26 47.27068 19.67069 5393 ft 253 kts 284°
2026-04-20 17:27 47.27432 19.64530 4918 ft 253 kts 284°
2026-04-20 17:27 47.27789 19.62019 4589 ft 241 kts 284°
2026-04-20 17:27 47.28114 19.59719 4529 ft 222 kts 284°
2026-04-20 17:27 47.28429 19.57514 4509 ft 213 kts 284°
2026-04-20 17:28 47.28727 19.55430 4407 ft 205 kts 284°
2026-04-20 17:28 47.29020 19.53381 4322 ft 203 kts 284°
2026-04-20 17:28 47.29313 19.51347 4234 ft 203 kts 286°
2026-04-20 17:28 47.29860 19.49476 4031 ft 200 kts 304°
2026-04-20 17:29 47.30770 19.47902 3791 ft 198 kts 313°
2026-04-20 17:29 47.31689 19.46436 3543 ft 194 kts 313°
2026-04-20 17:29 47.32573 19.45021 3276 ft 178 kts 312°
2026-04-20 17:29 47.33375 19.43735 3043 ft 163 kts 312°
2026-04-20 17:30 47.34116 19.42546 2825 ft 152 kts 313°
2026-04-20 17:30 47.34821 19.41415 2620 ft 148 kts 312°
2026-04-20 17:30 47.35520 19.40291 2435 ft 156 kts 312°
2026-04-20 17:30 47.36293 19.39049 2215 ft 169 kts 312°
2026-04-20 17:31 47.37065 19.37808 1984 ft 157 kts 313°
2026-04-20 17:31 47.37759 19.36692 1793 ft 142 kts 313°
2026-04-20 17:31 47.38412 19.35641 1592 ft 137 kts 313°
2026-04-20 17:31 47.39049 19.34616 1416 ft 134 kts 313°
2026-04-20 17:32 47.39678 19.33603 1221 ft 134 kts 313°
2026-04-20 17:32 47.40309 19.32587 1040 ft 135 kts 313°
2026-04-20 17:32 47.40939 19.31573 854 ft 134 kts 314°
2026-04-20 17:32 47.41567 19.30561 682 ft 133 kts 314°
2026-04-20 17:33 47.42175 19.29577 530 ft 131 kts 313°
2026-04-20 17:33 47.42767 19.28636 449 ft 110 kts 313°
2026-04-20 17:33 47.43168 19.27990 461 ft 61 kts 311°
2026-04-20 17:33 47.43327 19.27680 466 ft 22 kts 290°
2026-04-20 17:34 47.43357 19.27501 464 ft 18 kts 282°
2026-04-20 17:34 47.43386 19.27306 461 ft 21 kts 283°
2026-04-20 17:34 47.43422 19.27088 459 ft 23 kts 285°
2026-04-20 17:34 47.43494 19.26892 458 ft 19 kts 310°
2026-04-20 17:35 47.43565 19.26777 458 ft 14 kts 313°
2026-04-20 17:35 47.43636 19.26665 458 ft 15 kts 313°
2026-04-20 17:35 47.43713 19.26544 458 ft 17 kts 311°
2026-04-20 17:35 47.43724 19.26393 456 ft 17 kts 236°
2026-04-20 17:36 47.43678 19.26224 457 ft 18 kts 265°
2026-04-20 17:36 47.43652 19.26057 457 ft 18 kts 240°
2026-04-20 17:36 47.43568 19.25928 457 ft 15 kts 222°
2026-04-20 17:36 47.43497 19.25833 456 ft 11 kts 222°
2026-04-20 17:37 47.43443 19.25764 457 ft 9 kts 221°
2026-04-20 17:37 47.43400 19.25707 457 ft 8 kts 222°
2026-04-20 17:37 47.43370 19.25635 457 ft 8 kts 280°
2026-04-20 17:37 47.43392 19.25597 457 ft 0 kts 313°